This is the latest recevied weather packets stored in our database for station/object N9BLE. If no packets are shown the sender has not sent any weather packets the latest 10 day(s).
| Time | Temp. | Humidity | Pressure | Rain* | Wind** | Luminosity | Snow |
|---|---|---|---|---|---|---|---|
| 1777772658 | 8.33° C | 59% | 1019.8 hPa | 0 mm | - | 0 W/m² | - |
| 1777772356 | 8.33° C | 58% | 1019.8 hPa | 0 mm | - | 0 W/m² | - |
| 1777772052 | 8.33° C | 58% | 1019.8 hPa | 0 mm | - | 0 W/m² | - |
| 1777771749 | 8.89° C | 57% | 1019.9 hPa | 0 mm | - | 0 W/m² | - |
| 1777771448 | 8.89° C | 56% | 1019.7 hPa | 0 mm | - | 0 W/m² | - |
| 1777771144 | 8.89° C | 55% | 1019.8 hPa | 0 mm | - | 0 W/m² | - |
| 1777770841 | 9.44° C | 54% | 1019.8 hPa | 0 mm | - | 0 W/m² | - |
| 1777770537 | 9.44° C | 52% | 1019.8 hPa | 0 mm | - | 0 W/m² | - |
| 1777770234 | 10° C | 51% | 1019.7 hPa | 0 mm | - | 1 W/m² | - |
| 1777769931 | 10° C | 50% | 1019.7 hPa | 0 mm | - | 1 W/m² | - |
| 1777769629 | 10.56° C | 47% | 1019.7 hPa | 0 mm | - | 2 W/m² | - |
| 1777769324 | 11.11° C | 45% | 1019.9 hPa | 0 mm | - | 4 W/m² | - |
| 1777769022 | 11.11° C | 43% | 1019.8 hPa | 0 mm | - | 6 W/m² | - |
| 1777768719 | 11.67° C | 42% | 1019.6 hPa | 0 mm | - | 8 W/m² | - |
| 1777768416 | 11.67° C | 41% | 1019.7 hPa | 0 mm | - | 10 W/m² | - |
| 1777768113 | 11.67° C | 43% | 1019.7 hPa | 0 mm | - | 13 W/m² | - |
| 1777767811 | 11.67° C | 42% | 1019.8 hPa | 0 mm | - | 16 W/m² | - |
| 1777767507 | 11.67° C | 40% | 1019.9 hPa | 0 mm | - | 20 W/m² | - |
| 1777767203 | 12.22° C | 40% | 1019.9 hPa | 0 mm | - | 22 W/m² | - |
| 1777766901 | 12.22° C | 40% | 1020 hPa | 0 mm | - | 24 W/m² | - |
| 1777766598 | 12.22° C | 43% | 1019.9 hPa | 0 mm | - | 28 W/m² | - |
| 1777766295 | 12.22° C | 40% | 1019.8 hPa | 0 mm | - | 32 W/m² | - |
| 1777765992 | 12.22° C | 41% | 1019.9 hPa | 0 mm | - | 45 W/m² | - |
| 1777765689 | 12.22° C | 42% | 1020.2 hPa | 0 mm | - | 53 W/m² | - |
| 1777765386 | 12.22° C | 42% | 1019.9 hPa | 0 mm | - | 48 W/m² | - |
* Rain latest hour (hover to see other rain measurements)
** Current wind speed in m/s (hover to see current wind gust speed)